Wind_Speed
3 4 5 7 7 8 9 10 11 11 11 12 12 12 11 12 13 14 14 14 13 12 11 10 9 8 8 7 6 5 4 3 2 1 1 0 1 2 3 4 4 5 6 7
2 4 4 5 5 6 7 9 9 9 11 12 12 11 12 12 13 14 15 14 13 12 12 11 10 9 8 7 6 5 4 4 3 2 1 1 1 2 3 3 4 4 5 6
2 3 3 4 4 5 6 8 9 9 10 11 11 10 11 12 13 14 14 14 14 13 13 12 11 10 9 8 7 6 5 5 4 3 2 2 2 2 2 3 3 3 3 4
2 3 3 3 3 3 5 7 9 8 9 10 10 10 10 10 11 13 14 14 14 13 13 12 11 10 9 8 7 7 5 5 5 4 3 2 2 1 2 2 2 3 3 3
2 2 3 3 3 4 5 5 7 7 9 9 9 10 10 10 10 12 13 13 14 13 13 13 12 10 9 9 8 7 5 5 5 5 4 4 3 3 2 2 2 3 2 2
2 2 3 3 4 4 5 6 6 7 7 8 8 9 10 9 10 11 12 13 14 13 13 12 12 11 10 9 8 7 6 6 6 6 5 5 4 4 3 3 3 3 3 3
2 2 2 4 5 5 6 7 7 7 7 6 7 8 9 9 9 10 12 12 13 13 12 12 11 10 10 9 9 8 7 7 7 7 7 6 6 5 5 4 4 4 4 4
3 3 3 4 6 5 6 6 7 7 7 6 6 7 8 9 9 9 10 11 12 12 12 11 11 10 10 10 9 8 8 8 8 8 8 7 6 6 6 6 5 5 5 5
4 5 5 6 6 6 6 6 6 6 6 5 5 6 7 8 8 9 9 10 11 11 11 12 12 11 10 9 9 8 8 9 9 9 9 8 7 7 7 7 7 7 7 7
5 6 6 6 6 6 6 6 6 6 5 5 5 6 7 8 8 8 9 9 10 11 11 11 12 11 10 10 9 9 9 9 9 9 9 9 9 8 8 8 7 8 8 8
5 6 5 5 6 6 7 6 6 6 6 5 6 6 8 8 7 7 8 8 9 10 11 11 11 11 11 10 10 9 9 9 9 9 9 9 9 9 9 9 9 9 9 9
6 6 6 6 6 7 7 8 8 7 7 6 6 6 7 7 6 7 8 8 9 10 11 11 11 11 11 11 11 10 9 9 9 9 10 10 10 10 10 10 10 10 10 10
7 7 7 7 7 7 8 8 8 8 7 7 7 7 7 7 6 6 7 8 9 10 11 11 11 11 11 11 10 10 10 10 10 10 11 11 11 11 11 11 10 10 10 10
9 8 8 7 7 8 8 8 8 7 7 7 7 8 8 8 7 7 8 8 9 10 10 11 11 11 11 11 11 11 11 11 11 11 11 12 12 11 11 11 11 11 11 11
10 9 8 8 8 8 8 8 9 8 8 8 7 8 8 9 9 9 9 9 10 10 11 11 11 12 11 11 12 12 12 12 13 12 12 12 12 12 12 12 12 12 12 12
11 11 10 10 9 8 8 9 9 9 9 8 8 8 9 10 10 10 10 10 11 11 11 12 12 12 12 12 12 12 13 13 13 13 13 13 13 13 13 13 13 13 13 13
13 13 12 11 10 10 9 9 9 9 9 9 9 9 9 10 11 11 11 11 12 12 12 13 12 12 13 13 13 13 13 13 14 14 14 14 14 14 14 14 14 14 15 14
15 15 15 14 13 13 10 11 11 11 11 10 10 10 11 11 12 12 13 12 13 13 13 14 14 14 14 14 14 14 14 14 14 14 15 14 14 15 15 15 16 16 16 16
17 17 17 17 16 14 13 13 13 13 12 11 11 12 12 12 13 13 13 13 13 13 13 14 15 15 15 15 15 15 15 15 15 16 16 16 16 16 17 17 17 18 18 18
19 19 19 18 17 15 13 14 15 14 12 12 12 12 13 13 13 13 14 14 14 14 14 14 15 15 16 16 16 16 16 16 17 17 17 18 18 18 18 18 19 19 19 19
21 21 20 19 18 16 15 16 16 15 13 14 14 14 14 14 14 14 14 15 15 16 16 15 16 16 16 17 17 17 17 17 18 18 18 19 19 19 19 20 20 20 20 20
22 22 21 21 20 16 16 17 17 16 16 16 15 16 15 15 15 15 15 16 16 16 17 17 17 17 17 18 18 18 19 19 18 19 19 20 21 21 21 22 22 22 22 23
24 23 23 22 20 18 18 19 18 18 17 17 17 17 17 17 17 17 17 17 17 17 18 18 18 18 18 18 19 20 20 20 19 20 21 21 22 23 23 23 24 24 25 25
25 25 25 24 22 21 20 20 20 20 20 20 20 19 19 19 19 18 18 18 18 18 18 19 19 19 19 20 20 20 21 21 21 21 22 23 24 25 25 26 26 26 27 27
27 26 26 25 23 22 22 22 22 22 22 22 22 22 22 22 21 21 20 20 19 19 19 19 19 20 20 21 21 21 22 23 23 24 24 25 26 26 27 28 28 29 29 30
27 27 27 27 26 25 24 24 24 24 24 24 24 24 24 23 23 23 22 22 21 21 21 21 21 21 22 22 22 23 24 24 25 26 27 27 28 29 29 30 30 31 32 32
Wind_Direction
183 192 195 204 208 205 202 196 197 201 209 210 208 212 211 202 198 197 197 195 195 196 195 196 200 204 208 210 209 208 206 206 214 220 228 317 349 357 2 11 18 20 22 25
178 181 188 193 193 192 194 193 199 202 209 210 208 211 210 207 203 201 199 197 199 201 200 201 202 207 209 208 210 211 211 214 218 221 234 288 327 350 359 11 19 19 22 25
157 171 180 199 199 178 186 189 199 202 203 208 206 207 209 206 203 203 201 200 202 203 203 203 202 205 209 213 218 220 222 221 218 223 239 266 300 333 351 358 9 13 18 20
169 171 181 203 210 196 192 189 198 201 199 201 203 201 205 208 207 200 199 202 204 203 205 204 207 212 214 216 221 223 223 224 225 230 239 254 277 300 326 337 345 356 1 12
190 178 183 195 199 184 182 190 194 203 205 205 203 206 207 208 210 206 204 206 207 207 211 211 214 217 222 222 220 220 223 227 230 235 243 250 262 270 285 304 317 327 334 347
192 196 196 193 187 179 186 198 204 205 206 209 211 209 206 208 212 214 214 212 213 213 213 216 219 222 227 226 224 223 226 235 236 238 243 247 254 261 268 277 291 299 306 318
191 198 201 196 191 186 186 196 198 199 202 211 208 204 203 206 210 213 214 216 218 217 216 220 223 225 230 231 228 228 232 238 240 240 241 244 251 259 263 266 271 279 288 298
223 217 204 195 193 193 189 193 198 197 201 209 202 197 198 205 210 213 214 215 217 217 218 221 221 226 229 229 228 232 238 244 243 239 240 242 250 258 262 265 268 272 278 286
235 231 218 206 206 202 196 202 201 203 203 210 205 199 207 212 216 215 213 211 213 218 221 221 222 227 230 228 229 235 244 247 241 239 242 245 251 258 262 265 267 269 273 280
244 237 227 220 219 210 206 209 211 210 211 219 213 213 216 216 217 217 214 213 216 217 221 221 221 227 230 231 235 240 244 245 242 241 246 251 255 259 263 267 268 270 275 279
240 237 230 222 220 212 213 212 207 212 215 219 220 220 224 225 223 219 217 220 223 222 222 222 225 229 233 237 240 240 244 244 243 244 249 255 259 265 266 268 269 270 274 277
238 235 232 226 223 221 219 218 215 219 217 219 228 226 230 227 228 228 227 229 229 227 224 226 229 232 236 238 242 243 243 247 251 252 253 257 262 269 270 271 271 270 273 275
238 237 238 235 230 227 220 219 217 217 220 223 233 234 233 231 236 237 237 235 234 234 233 234 233 236 238 239 242 246 247 252 256 258 260 261 264 268 270 271 271 270 271 273
239 237 239 241 238 233 228 226 221 223 224 226 230 234 236 236 241 244 243 241 240 239 241 242 240 242 245 247 249 251 251 255 258 260 265 264 265 268 268 270 271 271 271 272
241 238 237 241 243 238 233 235 232 231 231 233 233 237 240 241 243 247 248 245 243 243 245 246 244 244 249 253 255 256 255 256 258 262 265 263 266 268 268 268 270 271 271 273
242 242 240 241 246 243 240 240 241 240 239 240 243 246 244 247 249 253 254 249 247 247 247 250 251 253 253 254 258 261 261 260 261 264 265 264 267 268 268 269 269 270 271 272
242 244 244 243 247 246 239 240 242 242 243 246 249 250 251 256 256 254 253 251 248 249 249 249 250 254 255 254 257 262 264 264 263 265 268 269 269 269 270 269 269 271 273 274
244 245 245 245 247 247 243 246 247 248 250 253 256 257 258 262 261 257 255 254 251 250 252 254 251 254 256 257 259 263 264 263 263 264 267 269 270 270 271 272 273 273 274 276
244 246 247 248 251 250 248 251 252 253 256 260 261 262 262 264 264 262 260 257 253 252 254 257 257 257 259 261 262 264 265 265 265 265 266 268 269 271 273 274 274 275 276 277
243 245 248 250 253 252 250 253 256 257 258 259 261 264 266 263 265 262 260 258 256 255 259 261 262 262 262 264 264 263 263 264 264 265 267 268 269 271 273 273 273 275 276 277
243 245 248 251 253 253 252 252 255 256 257 256 258 261 263 263 264 262 261 259 258 258 260 262 264 265 265 264 264 264 264 264 266 267 268 271 272 271 272 273 274 276 277 279
245 247 249 251 252 252 252 252 252 254 254 254 255 257 260 262 261 260 260 260 260 261 262 264 267 269 267 265 265 267 267 266 268 269 270 271 272 274 274 274 275 276 278 279
246 249 251 253 253 251 250 251 250 252 253 253 254 255 258 260 261 261 261 262 263 264 264 266 268 269 267 266 266 267 268 269 271 272 273 273 274 274 275 275 277 278 279 280
246 247 249 251 252 250 250 251 252 253 255 255 254 255 258 260 261 261 262 263 265 267 267 268 268 268 268 267 268 269 270 271 273 274 274 275 276 276 277 278 280 280 281 281
247 248 249 250 251 251 250 251 252 253 254 255 255 257 261 260 260 261 262 264 266 268 270 271 270 269 269 270 272 272 273 275 276 276 277 278 279 279 280 280 280 281 281 282
248 249 250 251 251 252 251 252 254 253 254 255 256 259 262 262 261 262 263 264 266 267 269 271 272 272 272 272 273 274 275 276 277 277 278 279 279 279 280 281 281 282 283 283
Height
5831 5832 5833 5834 5835 5837 5838 5840 5843 5845 5848 5850 5851 5854 5856 5857 5859 5861 5863 5866 5868 5870 5872 5874 5876 5877 5878 5879 5880 5881 5882 5882 5883 5883 5883 5883 5882 5882 5881 5880 5878 5877 5876 5875
5832 5833 5834 5834 5835 5837 5838 5841 5842 5845 5847 5849 5851 5852 5854 5856 5858 5860 5862 5865 5867 5869 5871 5873 5875 5876 5877 5879 5879 5880 5881 5881 5882 5882 5882 5882 5882 5881 5880 5879 5878 5877 5876 5875
5833 5835 5835 5835 5836 5837 5839 5841 5843 5845 5846 5848 5850 5852 5854 5855 5857 5859 5861 5863 5866 5868 5870 5872 5873 5875 5876 5878 5878 5879 5880 5880 5881 5881 5881 5881 5881 5880 5880 5879 5878 5877 5876 5875
5834 5835 5836 5836 5837 5838 5839 5841 5842 5844 5846 5848 5851 5852 5853 5854 5856 5858 5860 5862 5864 5866 5868 5870 5872 5874 5875 5876 5877 5878 5878 5879 5879 5880 5880 5880 5880 5879 5879 5878 5878 5877 5876 5875
5835 5836 5836 5837 5838 5839 5840 5841 5843 5844 5846 5848 5849 5851 5854 5854 5855 5857 5859 5861 5863 5865 5867 5869 5871 5872 5873 5875 5875 5876 5877 5877 5878 5878 5879 5879 5879 5878 5878 5877 5877 5876 5875 5874
5836 5836 5837 5838 5838 5840 5841 5842 5843 5844 5846 5848 5849 5851 5853 5854 5855 5856 5858 5860 5862 5864 5866 5867 5869 5870 5872 5873 5874 5874 5875 5876 5876 5877 5877 5877 5877 5877 5877 5876 5876 5875 5875 5874
5837 5837 5838 5838 5839 5841 5842 5843 5844 5845 5846 5848 5848 5850 5852 5853 5854 5855 5857 5858 5860 5862 5864 5866 5867 5869 5870 5871 5872 5873 5873 5874 5874 5875 5875 5875 5875 5875 5875 5875 5874 5874 5873 5873
5838 5838 5838 5839 5840 5841 5842 5844 5845 5846 5846 5847 5848 5849 5852 5852 5853 5854 5856 5857 5859 5861 5862 5864 5865 5867 5868 5869 5870 5871 5871 5872 5872 5873 5873 5873 5874 5874 5874 5873 5873 5872 5872 5871
5838 5839 5839 5839 5840 5841 5842 5843 5844 5846 5846 5847 5848 5850 5851 5852 5853 5853 5855 5856 5857 5859 5860 5862 5864 5865 5866 5867 5868 5868 5869 5870 5870 5871 5871 5872 5872 5871 5871 5871 5871 5870 5870 5869
5837 5838 5839 5839 5840 5841 5842 5843 5844 5845 5846 5847 5848 5849 5851 5851 5852 5853 5853 5855 5856 5857 5859 5860 5862 5863 5864 5865 5865 5866 5867 5867 5868 5868 5869 5869 5869 5869 5869 5869 5868 5868 5867 5866
5837 5838 5839 5839 5840 5840 5842 5843 5844 5845 5846 5847 5848 5851 5850 5851 5851 5852 5853 5853 5855 5856 5857 5858 5859 5861 5861 5862 5863 5864 5865 5865 5866 5866 5867 5867 5867 5867 5866 5866 5865 5864 5864 5863
5836 5837 5838 5839 5839 5839 5840 5841 5843 5845 5845 5846 5847 5852 5849 5850 5850 5851 5852 5852 5853 5854 5855 5856 5857 5858 5859 5860 5861 5862 5862 5863 5864 5864 5864 5864 5864 5864 5863 5862 5862 5861 5860 5860
5835 5836 5837 5838 5840 5840 5840 5841 5842 5843 5844 5845 5846 5850 5848 5849 5849 5850 5850 5851 5851 5852 5853 5854 5855 5856 5857 5858 5859 5859 5860 5861 5861 5861 5861 5861 5861 5861 5860 5860 5859 5858 5857 5857
5834 5835 5837 5838 5837 5838 5839 5840 5841 5842 5843 5844 5845 5847 5847 5847 5848 5848 5849 5849 5850 5851 5851 5852 5853 5854 5855 5855 5856 5857 5857 5858 5858 5859 5859 5858 5858 5858 5858 5857 5856 5856 5855 5855
5832 5833 5834 5835 5835 5836 5837 5838 5839 5841 5842 5843 5844 5844 5845 5846 5846 5847 5847 5847 5848 5849 5849 5850 5851 5851 5852 5853 5853 5854 5854 5855 5855 5856 5856 5856 5856 5855 5855 5854 5854 5853 5853 5853
5830 5831 5832 5833 5834 5834 5836 5837 5838 5839 5840 5841 5842 5843 5843 5844 5844 5845 5845 5845 5846 5846 5847 5847 5848 5848 5849 5850 5850 5851 5851 5852 5852 5852 5852 5852 5852 5852 5852 5851 5851 5851 5850 5850
5827 5829 5830 5831 5832 5833 5834 5835 5836 5837 5838 5839 5840 5841 5841 5841 5842 5842 5843 5843 5843 5844 5844 5845 5845 5846 5846 5847 5847 5848 5848 5848 5849 5849 5849 5849 5849 5849 5849 5848 5848 5848 5847 5847
5824 5825 5826 5828 5830 5831 5835 5833 5834 5835 5836 5837 5837 5837 5838 5838 5839 5839 5840 5840 5840 5841 5841 5842 5842 5842 5843 5843 5844 5844 5844 5845 5845 5845 5846 5846 5845 5845 5845 5845 5844 5844 5844 5844
5820 5822 5823 5824 5825 5828 5830 5830 5831 5832 5833 5834 5834 5835 5835 5835 5835 5836 5836 5836 5837 5837 5838 5838 5838 5839 5839 5840 5840 5841 5841 5841 5841 5841 5841 5841 5841 5841 5841 5841 5840 5840 5840 5840
5816 5818 5820 5820 5822 5824 5828 5827 5827 5829 5830 5831 5831 5831 5831 5832 5833 5833 5833 5833 5833 5833 5834 5834 5835 5835 5835 5836 5836 5836 5837 5837 5837 5837 5837 5837 5836 5837 5836 5836 5836 5836 5835 5835
5811 5813 5814 5816 5817 5820 5822 5823 5824 5826 5828 5827 5827 5828 5828 5828 5829 5829 5829 5829 5829 5830 5830 5830 5831 5831 5831 5831 5832 5832 5832 5832 5832 5832 5832 5832 5832 5832 5832 5831 5831 5831 5830 5830
5806 5808 5809 5811 5813 5817 5817 5818 5820 5821 5822 5822 5823 5823 5824 5824 5824 5825 5825 5825 5825 5826 5826 5826 5826 5826 5827 5827 5827 5827 5827 5827 5827 5827 5827 5827 5826 5826 5826 5826 5825 5825 5824 5824
5800 5803 5804 5807 5810 5811 5812 5813 5814 5815 5817 5817 5818 5819 5819 5820 5820 5820 5821 5821 5821 5821 5821 5822 5822 5822 5822 5822 5822 5822 5822 5822 5822 5822 5821 5821 5821 5820 5820 5820 5819 5819 5818 5817
5795 5796 5798 5800 5803 5805 5806 5807 5809 5810 5811 5812 5813 5814 5814 5815 5815 5816 5816 5816 5816 5816 5817 5817 5817 5817 5817 5817 5817 5817 5816 5816 5816 5816 5816 5815 5815 5814 5813 5813 5812 5811 5811 5810
5788 5790 5792 5794 5796 5798 5800 5801 5802 5804 5805 5806 5807 5808 5808 5809 5810 5810 5811 5811 5811 5811 5811 5811 5811 5811 5811 5811 5811 5811 5810 5810 5810 5809 5809 5808 5808 5807 5806 5805 5805 5804 5803 5801
5782 5784 5786 5788 5790 5792 5794 5795 5796 5797 5798 5799 5800 5801 5802 5802 5803 5804 5804 5805 5805 5805 5805 5805 5805 5805 5805 5805 5805 5804 5804 5803 5803 5803 5802 5801 5800 5799 5798 5797 5796 5795 5794 5792